This is the latest recevied weather packets stored in our database for station/object N5SNT-2. If no packets are shown the sender has not sent any weather packets the latest 10 day(s).
| Time | Temp. | Humidity | Pressure | Rain* | Wind** | Luminosity | Snow |
|---|---|---|---|---|---|---|---|
| 1777736844 | 17.78° C | 62% | 1025 hPa | 0 mm | - | 673 W/m² | - |
| 1777736545 | 17.78° C | 63% | 1025 hPa | 0 mm | - | 655 W/m² | - |
| 1777736243 | 17.78° C | 61% | 1025 hPa | 0 mm | - | 634 W/m² | - |
| 1777735944 | 17.22° C | 61% | 1025 hPa | 0 mm | - | 621 W/m² | - |
| 1777735643 | 17.22° C | 60% | 1025 hPa | 0 mm | - | 602 W/m² | - |
| 1777735343 | 17.22° C | 65% | 1025 hPa | 0 mm | - | 584 W/m² | - |
| 1777735043 | 17.22° C | 63% | 1025 hPa | 0 mm | - | 564 W/m² | - |
| 1777734744 | 17.22° C | 63% | 1025 hPa | 0 mm | - | 543 W/m² | - |
| 1777734444 | 16.67° C | 64% | 1025 hPa | 0 mm | - | 522 W/m² | - |
| 1777734143 | 16.67° C | 66% | 1025 hPa | 0 mm | - | 497 W/m² | - |
| 1777733843 | 16.67° C | 66% | 1025 hPa | 0 mm | - | 475 W/m² | - |
| 1777733543 | 16.11° C | 66% | 1025 hPa | 0 mm | - | 453 W/m² | - |
| 1777733244 | 16.11° C | 67% | 1025 hPa | 0 mm | - | 430 W/m² | - |
| 1777732944 | 16.11° C | 68% | 1025 hPa | 0 mm | - | 412 W/m² | - |
| 1777732361 | 15.56° C | 69% | 1025 hPa | 0 mm | - | 386 W/m² | - |
| 1777732044 | 15.56° C | 70% | 1024 hPa | 0 mm | - | 358 W/m² | - |
| 1777731743 | 15° C | 70% | 1025 hPa | 0 mm | - | 298 W/m² | - |
| 1777731444 | 15° C | 71% | 1024 hPa | 0 mm | - | 258 W/m² | - |
| 1777731143 | 15° C | 73% | 1025 hPa | 0 mm | - | 165 W/m² | - |
| 1777730843 | 14.44° C | 72% | 1024 hPa | 0 mm | - | 303 W/m² | - |
| 1777730544 | 15° C | 73% | 1024 hPa | 0 mm | - | 202 W/m² | - |
| 1777730243 | 14.44° C | 75% | 1024 hPa | 0 mm | - | 220 W/m² | - |
| 1777729944 | 14.44° C | 76% | 1024 hPa | 0 mm | - | 180 W/m² | - |
| 1777729643 | 14.44° C | 78% | 1024 hPa | 0 mm | - | 148 W/m² | - |
| 1777729343 | 13.89° C | 78% | 1024 hPa | 0 mm | - | 108 W/m² | - |
* Rain latest hour (hover to see other rain measurements)
** Current wind speed in m/s (hover to see current wind gust speed)